Regional Weather Roundup
Issued by NWS Memphis, TN

Home | Current Version | Previous Version | Text Only | Print | Product List | Glossary On
Versions: 1 2 3 4 5 6 7 8 9 10 11 12 13 14 15 16 17 18 19 20 21 22 23 24 25 26 27 28 29 30 31 32 33 34 35 36 37 38 39 40 41 42 43 44 45 46 47 48 49 50
000
ASUS44 KMEG 270410
RWRMEG
MEMPHIS CWA HOURLY WEATHER ROUNDUP
NATIONAL WEATHER SERVICE MEMPHIS TN
1100 PM CDT THU MAY 26 2016

...WEST TENNESSEE...

CITY           SKY/WX    TMP DP  RH WIND       PRES   REMARKS
MEMPHIS INTL   TSTM      71  67  87 E8        29.95F
NWS MEMPHIS      N/A     69 N/A N/A MISG        N/A
JACKSON        LGT RAIN  67  66  97 CALM      30.01F
LEXINGTON      CLEAR     66  66 100 CALM      30.02F
DYERSBURG      CLOUDY    68  64  88 E7        30.00F
UNION CITY     CLOUDY    68  66  94 S7        29.98F
PARIS          PTCLDY    66  63  88 SW10      30.01F


...EASTERN ARKANSAS...

CITY           SKY/WX    TMP DP  RH WIND       PRES   REMARKS
JONESBORO      LGT RAIN  69  67  93 E14       29.96F
WEST MEMPHIS   TSTM      69  68  96 E16       29.94F FOG
BATESVILLE     CLOUDY    70  66  88 E10       29.92S
NEWPORT        CLOUDY    71  70  97 E18       29.93F
WALNUT RIDGE   MOCLDY    70  64  83 E20G26    29.94F
BLYTHEVILLE    LGT RAIN  69  68  96 E13       29.98F
SEARCY         CLOUDY    71  70  96 CALM      29.90F
STUTTGART      CLOUDY    73  66  78 NE6       29.90F
PINE BLUFF     LGT RAIN  71  69  93 NE3       29.88F
MONTICELLO     CLOUDY    79  71  76 VRB5      29.88F


...NORTH MISSISSIPPI...

CITY           SKY/WX    TMP DP  RH WIND       PRES   REMARKS
TUPELO         CLOUDY    78  56  46 E6        30.00S
OXFORD         CLOUDY    77  64  65 S13G21    29.99S
BATESVILLE     MOCLDY    79  68  68 SE8       29.96S
OLIVE BRANCH   CLEAR     68  68 100 E10       29.97F
TUNICA         MOCLDY    73  72  94 SE3       29.94F
CLARKSDALE     CLOUDY    75  75 100 NE5       29.93F
CORINTH        CLOUDY    70  64  83 CALM      30.00F
GREENWOOD      CLOUDY    78  68  71 S10       29.95F
COLUMBUS       PTCLDY    72  61  68 SE5       30.00S
STARKVILLE     CLEAR     70  64  83 CALM      30.00S
GOLDEN TRIANGL CLEAR     73  59  60 S7        30.00S


...SOUTHEAST MISSOURI...

CITY           SKY/WX    TMP DP  RH WIND       PRES   REMARKS
KENNETT        HVY RAIN  70  68  94 SE8       29.99R
WEST PLAINS    MOCLDY    68  64  87 SE8       29.93R
POPLAR BLUFF   CLOUDY    68  65  90 S15G22    29.98R
CAPE GIRARDEAU LGT RAIN  67  65  93 S17G23    29.94F


...NORTHWEST ALABAMA...

CITY           SKY/WX    TMP DP  RH WIND       PRES   REMARKS
MUSCLE SHOALS  CLOUDY    74  62  66 CALM      30.04S


...MIDDLE TENNESSEE...

CITY           SKY/WX    TMP DP  RH WIND       PRES   REMARKS
NASHVILLE      CLOUDY    70  64  81 S8        30.01F
CLARKSVILLE    CLOUDY    68  65  90 CALM      29.99S
COLUMBIA       CLEAR    N/A N/A N/A CALM      30.02


...WESTERN KENTUCKY...

CITY           SKY/WX    TMP DP  RH WIND       PRES   REMARKS
PADUCAH        CLOUDY    69  63  81 VRB3      29.97F
FORT CAMPBELL  CLOUDY    68  66  94 S3        29.98F


...CENTRAL ARKANSAS...

CITY           SKY/WX    TMP DP  RH WIND       PRES   REMARKS
LITTLE ROCK    LGT RAIN  72  68  87 SE5       29.88F


SKY/WX REPORTED AS FAIR MEANS FEW OR NO CLOUDS BELOW
12 THOUSAND FEET.





USA.gov is the U.S. government's official web portal to all federal, state and local government web resources and services.